TimeIST,TemperatureF,Dew PointF,Humidity,Sea Level PressureIn,VisibilityMPH,Wind Direction,Wind SpeedMPH,Gust SpeedMPH,PrecipitationIn,Events,Conditions,WindDirDegrees,DateUTC
12:00 AM,64.4,44.6,49,29.92,1.6,Calm,Calm,-,N/A,,Haze,0,2012-10-25 18:30:00
1:00 AM,62.6,46.4,55,29.92,1.6,Calm,Calm,-,N/A,,Haze,0,2012-10-25 19:30:00
2:00 AM,62.6,46.4,55,29.92,1.6,Calm,Calm,-,N/A,,Haze,0,2012-10-25 20:30:00
2:30 AM,66,47,39,29.88,1,,1.2,,,,Haze,,2012-10-25 21:00:00
3:00 AM,60.8,46.4,59,29.92,1.6,Calm,Calm,-,N/A,,Haze,0,2012-10-25 21:30:00
4:00 AM,62.6,46.4,55,29.92,1.6,Calm,Calm,-,N/A,,Haze,0,2012-10-25 22:30:00
5:00 AM,59.0,46.4,63,29.92,1.6,Calm,Calm,-,N/A,,Haze,0,2012-10-25 23:30:00
6:00 AM,59.0,48.2,67,29.95,1.6,Calm,Calm,-,N/A,,Haze,0,2012-10-26 00:30:00
6:30 AM,59.0,48.2,67,29.95,1.6,Calm,Calm,-,N/A,,Haze,0,2012-10-26 01:00:00
7:00 AM,59.0,48.2,67,29.98,1.6,Calm,Calm,-,N/A,,Haze,0,2012-10-26 01:30:00
8:00 AM,66.2,50.0,56,30.01,1.6,Calm,Calm,-,N/A,,Haze,0,2012-10-26 02:30:00
8:30 AM,73,49,32,29.95,1,Calm,Calm,,,,Haze,,2012-10-26 03:00:00
10:00 AM,77.0,48.2,36,30.04,2.5,ESE,5.8,-,N/A,,Haze,110,2012-10-26 04:30:00
11:00 AM,78.8,48.2,34,30.04,2.5,SE,5.8,-,N/A,,Haze,140,2012-10-26 05:30:00
12:00 PM,82.4,46.4,28,30.01,2.5,Variable,3.5,-,N/A,,Haze,0,2012-10-26 06:30:00
1:00 PM,84.2,44.6,25,29.98,2.5,Variable,3.5,-,N/A,,Haze,0,2012-10-26 07:30:00
1:30 PM,84.2,44.6,25,29.98,2.5,Variable,2.3,-,N/A,,Haze,0,2012-10-26 08:00:00
2:00 PM,86.0,44.6,23,29.95,2.5,SSE,5.8,-,N/A,,Haze,150,2012-10-26 08:30:00
2:30 PM,84,51,21,29.88,2,,4.6,,,,Haze,,2012-10-26 09:00:00
2:30 PM,86.0,48.2,27,29.95,2.5,Variable,2.3,-,N/A,,Haze,0,2012-10-26 09:00:00
3:30 PM,86.0,48.2,27,29.92,3.1,Variable,2.3,-,N/A,,Haze,0,2012-10-26 10:00:00
4:00 PM,84.2,48.2,29,29.92,3.1,Variable,2.3,-,N/A,,Haze,0,2012-10-26 10:30:00
4:30 PM,84.2,48.2,29,29.92,3.1,East,3.5,-,N/A,,Haze,80,2012-10-26 11:00:00
5:00 PM,82.4,48.2,30,29.92,3.1,East,4.6,-,N/A,,Haze,80,2012-10-26 11:30:00
5:30 PM,81,48,21,29.86,2,Calm,Calm,,,,Haze,,2012-10-26 12:00:00
5:30 PM,80.6,48.2,32,29.92,2.5,Calm,Calm,-,N/A,,Haze,0,2012-10-26 12:00:00
6:30 PM,75.2,48.2,38,29.95,1.9,Calm,Calm,-,N/A,,Haze,0,2012-10-26 13:00:00
7:00 PM,75.2,48.2,38,29.95,1.9,Calm,Calm,-,N/A,,Haze,0,2012-10-26 13:30:00
8:00 PM,71.6,50.0,46,29.95,1.9,Calm,Calm,-,N/A,,Haze,0,2012-10-26 14:30:00
9:00 PM,69.8,50.0,49,29.98,1.9,Calm,Calm,-,N/A,,Haze,0,2012-10-26 15:30:00
10:00 PM,68.0,50.0,52,29.98,1.9,Calm,Calm,-,N/A,,Haze,0,2012-10-26 16:30:00
11:00 PM,68.0,50.0,52,29.98,1.9,Calm,Calm,-,N/A,,Haze,0,2012-10-26 17:30:00
11:30 PM,66,55,60,29.94,1,Calm,Calm,,,,Haze,,2012-10-26 18:00:00